Radiation Dose at Monitoring Post of Fukushima Daini Nuclear Power Station
Date,Time,MP-1(microSv/h),MP-2(microSv/h),MP-3(microSv/h),MP-4(microSv/h),MP-5(microSv/h),MP-6(microSv/h),MP-7(microSv/h),Wind Direction,Wind Velocity(m/s),Rain
2015/03/07,00:00,0.542,0.332,0.558,0.517,0.552,0.255,0.226,south,0.8,No
2015/03/07,00:10,0.543,0.332,0.560,0.515,0.554,0.254,0.226,south-southeast,1.1,No
2015/03/07,00:20,0.542,0.331,0.559,0.512,0.553,0.254,0.226,south-southeast,1.1,No
2015/03/07,00:30,0.542,0.331,0.557,0.517,0.552,0.255,0.226,south-southeast,1.3,No
2015/03/07,00:40,0.542,0.333,0.559,0.514,0.553,0.253,0.227,south-southeast,0.6,No
2015/03/07,00:50,0.543,0.331,0.560,0.514,0.556,0.254,0.227,south-southeast,0.8,No
2015/03/07,01:00,0.539,0.329,0.559,0.514,0.553,0.254,0.225,south-southeast,1.2,No
2015/03/07,01:10,0.544,0.332,0.558,0.514,0.552,0.254,0.227,southeast,0.9,No
2015/03/07,01:20,0.542,0.331,0.560,0.513,0.553,0.254,0.226,south-southeast,1.5,No
2015/03/07,01:30,0.542,0.329,0.557,0.514,0.555,0.253,0.226,south-southeast,1.7,No
2015/03/07,01:40,0.543,0.333,0.558,0.517,0.553,0.254,0.226,south,1.1,No
2015/03/07,01:50,0.542,0.332,0.561,0.515,0.552,0.255,0.227,south-southeast,1.1,No
2015/03/07,02:00,0.540,0.331,0.558,0.513,0.555,0.254,0.227,-,CALM,No
2015/03/07,02:10,0.543,0.331,0.559,0.515,0.553,0.255,0.227,south,0.5,No
2015/03/07,02:20,0.543,0.332,0.559,0.515,0.552,0.254,0.227,south-southeast,0.9,No
2015/03/07,02:30,0.542,0.331,0.559,0.513,0.555,0.255,0.225,south-southeast,0.7,No
2015/03/07,02:40,0.543,0.331,0.559,0.515,0.554,0.254,0.226,southeast,0.9,No
2015/03/07,02:50,0.543,0.332,0.559,0.516,0.552,0.254,0.226,-,CALM,No
2015/03/07,03:00,0.541,0.333,0.561,0.514,0.554,0.254,0.226,south-southeast,0.8,No
2015/03/07,03:10,0.542,0.332,0.558,0.515,0.556,0.254,0.226,south-southeast,0.6,No
2015/03/07,03:20,0.545,0.332,0.560,0.513,0.550,0.254,0.226,south,0.6,No
2015/03/07,03:30,0.540,0.332,0.560,0.514,0.554,0.254,0.226,-,CALM,No
2015/03/07,03:40,0.544,0.332,0.557,0.514,0.554,0.255,0.225,southeast,0.5,No
2015/03/07,03:50,0.544,0.332,0.558,0.516,0.553,0.253,0.227,-,CALM,No
2015/03/07,04:00,0.541,0.331,0.561,0.517,0.553,0.254,0.225,-,CALM,No
2015/03/07,04:10,0.541,0.332,0.561,0.515,0.555,0.253,0.226,-,CALM,No
2015/03/07,04:20,0.544,0.332,0.559,0.516,0.553,0.254,0.226,-,CALM,No
2015/03/07,04:30,0.542,0.331,0.560,0.516,0.552,0.256,0.226,-,CALM,No
2015/03/07,04:40,0.544,0.333,0.559,0.517,0.554,0.256,0.226,-,CALM,No
2015/03/07,04:50,0.545,0.331,0.560,0.514,0.555,0.254,0.226,-,CALM,No
2015/03/07,05:00,0.542,0.332,0.561,0.515,0.553,0.254,0.227,-,CALM,No
2015/03/07,05:10,0.541,0.330,0.561,0.515,0.554,0.254,0.226,north,0.6,No
2015/03/07,05:20,0.545,0.333,0.558,0.516,0.555,0.255,0.226,north-northeast,0.8,No
2015/03/07,05:30,0.541,0.333,0.558,0.512,0.553,0.254,0.225,north,0.7,No
2015/03/07,05:40,0.540,0.332,0.561,0.516,0.553,0.254,0.225,north,1.1,No
2015/03/07,05:50,0.545,0.333,0.561,0.515,0.554,0.256,0.226,north,1.1,No
2015/03/07,06:00,0.543,0.333,0.557,0.515,0.554,0.254,0.227,north,0.7,No
2015/03/07,06:10,0.542,0.332,0.560,0.515,0.550,0.254,0.226,-,CALM,No
2015/03/07,06:20,0.544,0.331,0.561,0.515,0.553,0.255,0.227,north-northwest,0.6,No
2015/03/07,06:30,0.543,0.332,0.560,0.514,0.555,0.254,0.226,north-northwest,0.7,No
2015/03/07,06:40,0.542,0.332,0.560,0.515,0.553,0.255,0.227,-,CALM,Yes
2015/03/07,06:50,0.542,0.331,0.562,0.517,0.552,0.255,0.227,southwest,2.5,Yes
2015/03/07,07:00,0.546,0.331,0.561,0.517,0.555,0.255,0.226,west,1.4,Yes
2015/03/07,07:10,0.542,0.333,0.558,0.517,0.554,0.256,0.227,-,CALM,Yes
2015/03/07,07:20,0.543,0.332,0.561,0.515,0.553,0.255,0.227,west,1.2,Yes
2015/03/07,07:30,0.547,0.332,0.562,0.517,0.556,0.255,0.227,southwest,1.1,Yes
2015/03/07,07:40,0.543,0.331,0.560,0.516,0.555,0.256,0.229,west-northwest,1.1,Yes
2015/03/07,07:50,0.544,0.333,0.561,0.516,0.553,0.256,0.228,southwest,0.8,Yes
2015/03/07,08:00,0.547,0.334,0.562,0.517,0.555,0.256,0.227,west-southwest,2.5,Yes
2015/03/07,08:10,0.546,0.332,0.561,0.517,0.554,0.257,0.228,west,1.6,Yes
2015/03/07,08:20,0.544,0.335,0.560,0.516,0.556,0.257,0.229,southwest,3.8,Yes
2015/03/07,08:30,0.546,0.335,0.561,0.515,0.552,0.257,0.228,west,2.8,Yes
2015/03/07,08:40,0.545,0.334,0.561,0.516,0.553,0.257,0.228,west,2.4,Yes
2015/03/07,08:50,0.544,0.333,0.560,0.515,0.553,0.257,0.230,north-northeast,4.0,Yes
2015/03/07,09:00,0.545,0.334,0.557,0.515,0.553,0.259,0.229,west,2.5,Yes
2015/03/07,09:10,0.545,0.334,0.558,0.514,0.554,0.257,0.228,west-southwest,1.9,Yes
2015/03/07,09:20,0.543,0.332,0.560,0.515,0.554,0.257,0.228,west,1.5,Yes
2015/03/07,09:30,0.542,0.333,0.556,0.513,0.551,0.256,0.230,west-northwest,1.3,Yes
2015/03/07,09:40,0.543,0.333,0.558,0.512,0.552,0.257,0.228,west-northwest,1.1,Yes
2015/03/07,09:50,0.541,0.332,0.560,0.514,0.552,0.257,0.228,west-northwest,1.5,Yes
2015/03/07,10:00,0.540,0.333,0.553,0.513,0.553,0.256,0.228,west,1.5,Yes
2015/03/07,10:10,0.542,0.333,0.554,0.510,0.549,0.256,0.227,west-northwest,1.0,Yes
2015/03/07,10:20,0.542,0.333,0.556,0.514,0.551,0.256,0.226,west-northwest,1.1,Yes
2015/03/07,10:30,0.540,0.331,0.557,0.512,0.550,0.254,0.228,west,1.2,Yes
2015/03/07,10:40,0.541,0.331,0.555,0.508,0.550,0.254,0.224,west-northwest,1.5,Yes
2015/03/07,10:50,0.539,0.330,0.554,0.509,0.551,0.255,0.226,west,1.5,Yes
2015/03/07,11:00,0.538,0.328,0.556,0.508,0.550,0.254,0.225,west-northwest,1.4,No
2015/03/07,11:10,0.538,0.331,0.555,0.508,0.548,0.252,0.225,west-northwest,1.4,Yes
2015/03/07,11:20,0.539,0.330,0.553,0.510,0.550,0.254,0.225,north-northwest,0.8,No
2015/03/07,11:30,0.538,0.328,0.556,0.508,0.550,0.252,0.224,west-northwest,1.4,No
2015/03/07,11:40,0.540,0.330,0.554,0.507,0.550,0.253,0.223,west,0.8,No
2015/03/07,11:50,0.536,0.330,0.553,0.511,0.548,0.253,0.222,west-northwest,0.9,No
2015/03/07,12:00,0.537,0.329,0.556,0.510,0.550,0.252,0.224,west,1.0,No
2015/03/07,12:10,0.539,0.328,0.555,0.507,0.548,0.252,0.222,west-northwest,0.6,No
2015/03/07,12:20,0.539,0.329,0.552,0.509,0.550,0.252,0.224,northwest,0.6,Yes
2015/03/07,12:30,0.536,0.328,0.554,0.510,0.548,0.253,0.223,north,0.6,Yes
2015/03/07,12:40,0.540,0.330,0.552,0.509,0.547,0.252,0.224,west,0.8,No
2015/03/07,12:50,0.537,0.328,0.554,0.512,0.552,0.253,0.225,southwest,1.1,No
2015/03/07,13:00,0.537,0.328,0.554,0.510,0.548,0.253,0.225,west-southwest,1.8,Yes
2015/03/07,13:10,0.539,0.329,0.553,0.509,0.550,0.252,0.223,west-southwest,1.7,Yes
2015/03/07,13:20,0.537,0.329,0.555,0.511,0.551,0.253,0.224,west-southwest,1.9,No
2015/03/07,13:30,0.539,0.331,0.556,0.510,0.550,0.253,0.223,southwest,1.7,Yes
2015/03/07,13:40,0.540,0.330,0.552,0.509,0.553,0.252,0.223,south-southeast,0.5,No
2015/03/07,13:50,0.538,0.327,0.554,0.511,0.551,0.252,0.226,south-southwest,0.8,No
2015/03/07,14:00,0.539,0.331,0.555,0.509,0.549,0.254,0.223,-,CALM,No
2015/03/07,14:10,0.538,0.329,0.554,0.511,0.552,0.253,0.223,south-southwest,0.7,Yes
2015/03/07,14:20,0.539,0.330,0.555,0.511,0.549,0.253,0.225,south,0.8,Yes
2015/03/07,14:30,0.540,0.331,0.556,0.509,0.550,0.253,0.225,southeast,0.6,Yes
2015/03/07,14:40,0.538,0.330,0.554,0.511,0.553,0.255,0.225,east,1.3,Yes
2015/03/07,14:50,0.540,0.329,0.554,0.512,0.550,0.254,0.224,east,1.3,No
2015/03/07,15:00,0.541,0.330,0.556,0.510,0.551,0.253,0.226,northeast,1.7,No
2015/03/07,15:10,0.536,0.329,0.552,0.511,0.550,0.254,0.225,east-northeast,1.8,No
2015/03/07,15:20,0.541,0.329,0.556,0.512,0.549,0.253,0.224,northeast,1.7,No
2015/03/07,15:30,0.537,0.330,0.553,0.508,0.552,0.252,0.224,north-northeast,1.3,Yes
2015/03/07,15:40,0.538,0.329,0.552,0.512,0.551,0.253,0.224,northeast,1.3,No
2015/03/07,15:50,0.541,0.331,0.556,0.510,0.548,0.253,0.224,east-northeast,2.1,No
2015/03/07,16:00,0.537,0.330,0.553,0.509,0.549,0.252,0.224,northeast,1.7,No
2015/03/07,16:10,0.538,0.329,0.555,0.511,0.548,0.253,0.224,northeast,1.0,No
2015/03/07,16:20,0.539,0.331,0.556,0.508,0.548,0.253,0.224,east-northeast,1.6,No
2015/03/07,16:30,0.537,0.330,0.554,0.510,0.550,0.254,0.223,east-northeast,1.2,No
2015/03/07,16:40,0.540,0.330,0.554,0.512,0.549,0.254,0.224,east-northeast,0.5,No
2015/03/07,16:50,0.540,0.329,0.554,0.508,0.549,0.252,0.223,-,CALM,No
2015/03/07,17:00,0.538,0.332,0.555,0.510,0.551,0.253,0.224,northeast,0.8,No
2015/03/07,17:10,0.540,0.330,0.554,0.510,0.549,0.254,0.226,-,CALM,No
2015/03/07,17:20,0.539,0.329,0.558,0.510,0.549,0.252,0.224,northeast,1.2,No
2015/03/07,17:30,0.538,0.330,0.553,0.507,0.551,0.253,0.224,north-northeast,1.0,No
2015/03/07,17:40,0.542,0.330,0.554,0.512,0.550,0.253,0.224,northeast,0.5,No
2015/03/07,17:50,0.538,0.330,0.556,0.511,0.551,0.252,0.225,north-northeast,0.8,No
2015/03/07,18:00,0.538,0.330,0.554,0.511,0.553,0.254,0.225,north-northeast,1.0,No
2015/03/07,18:10,0.541,0.330,0.557,0.511,0.549,0.252,0.225,north,1.8,No
2015/03/07,18:20,0.540,0.329,0.557,0.510,0.549,0.253,0.224,north,1.6,No
2015/03/07,18:30,0.538,0.331,0.555,0.509,0.553,0.253,0.223,north-northeast,1.2,No
2015/03/07,18:40,0.540,0.329,0.554,0.512,0.550,0.252,0.224,north-northeast,1.1,No
2015/03/07,18:50,0.539,0.328,0.557,0.510,0.550,0.254,0.225,north-northeast,2.2,No
2015/03/07,19:00,0.538,0.329,0.554,0.509,0.550,0.252,0.224,north,2.0,No
2015/03/07,19:10,0.540,0.329,0.555,0.510,0.552,0.252,0.225,north,2.2,No
2015/03/07,19:20,0.539,0.330,0.558,0.513,0.549,0.252,0.224,north,3.0,No
2015/03/07,19:30,0.537,0.329,0.555,0.510,0.551,0.253,0.223,north-northeast,2.4,No
2015/03/07,19:40,0.542,0.329,0.555,0.511,0.551,0.253,0.225,north,3.3,No
2015/03/07,19:50,0.541,0.330,0.560,0.513,0.551,0.253,0.224,north,3.9,No
2015/03/07,20:00,0.538,0.329,0.556,0.510,0.551,0.253,0.225,north,4.1,No
2015/03/07,20:10,0.540,0.330,0.554,0.509,0.550,0.253,0.225,north,4.2,No
2015/03/07,20:20,0.540,0.330,0.557,0.514,0.551,0.253,0.224,north,3.9,No
2015/03/07,20:30,0.538,0.330,0.556,0.510,0.548,0.253,0.224,north,3.9,No
2015/03/07,20:40,0.540,0.331,0.555,0.510,0.550,0.252,0.225,north,3.7,No
2015/03/07,20:50,0.540,0.330,0.555,0.511,0.551,0.255,0.224,north,3.6,No
2015/03/07,21:00,0.539,0.330,0.558,0.513,0.549,0.255,0.224,north,3.6,No
2015/03/07,21:10,0.539,0.330,0.557,0.510,0.550,0.253,0.225,north,2.0,No
2015/03/07,21:20,0.542,0.331,0.554,0.511,0.550,0.252,0.224,north,1.9,No
2015/03/07,21:30,0.539,0.330,0.558,0.511,0.551,0.253,0.225,north-northeast,1.5,No
2015/03/07,21:40,0.539,0.329,0.556,0.510,0.549,0.253,0.224,north,2.8,No
2015/03/07,21:50,0.542,0.330,0.555,0.510,0.551,0.253,0.226,north-northeast,1.4,No
2015/03/07,22:00,0.542,0.330,0.556,0.512,0.549,0.252,0.225,north,2.3,No
2015/03/07,22:10,0.539,0.330,0.557,0.511,0.550,0.254,0.224,north,2.4,No
2015/03/07,22:20,0.542,0.331,0.554,0.510,0.550,0.253,0.224,north,5.0,Yes
2015/03/07,22:30,0.541,0.330,0.557,0.511,0.552,0.254,0.225,north,5.2,Yes
2015/03/07,22:40,0.540,0.332,0.558,0.512,0.550,0.254,0.227,north-northwest,5.2,Yes
2015/03/07,22:50,0.543,0.333,0.557,0.511,0.551,0.255,0.228,north,5.9,Yes
2015/03/07,23:00,0.543,0.331,0.556,0.513,0.552,0.255,0.226,north,5.0,Yes
2015/03/07,23:10,0.542,0.332,0.557,0.514,0.553,0.256,0.225,north,5.5,No
2015/03/07,23:20,0.541,0.331,0.558,0.512,0.549,0.255,0.226,north-northwest,4.7,No
2015/03/07,23:30,0.542,0.331,0.554,0.511,0.550,0.254,0.226,north,5.0,No
2015/03/07,23:40,0.541,0.333,0.557,0.511,0.553,0.253,0.226,north,5.2,No
2015/03/07,23:50,0.539,0.332,0.559,0.512,0.551,0.253,0.225,north,5.6,No
